Tracking 29892 objects as of 21-Nov-2024
HD Live streaming from Space Station
objects crossing your sky now

STARLINK-3664

Track STARLINK-3664 now!
10-day predictions
STARLINK-3664 is classified as:


NORAD ID: 51984
Int'l Code: 2022-025AE
Perigee: 545.9 km
Apogee: 547.9 km
Inclination: 53.2 °
Period: 95.4 minutes
Semi major axis: 6917 km
RCS: Unknown
Launch date: March 9, 2022
Source: United States (US)
Launch site: AIR FORCE EASTERN TEST RANGE (AFETR)
Your satellite tracking list
Your tracking list is empty




NASA's NSSDC Master Catalog

Two Line Element Set (TLE):
1 51984U 22025AE  24325.56922584 -.00000504  00000-0 -13602-4 0  9992
2 51984  53.2184   7.6149 0001436  93.5092 266.6064 15.08843369149484
Source of the keplerian elements: AFSPC